Погода в Икитосе

Перу     3˚44′09″S   73˚14′54″W
темп.,
°C
ветер,
м/с
пор.,
м/с
влажн.,
%
обл.,
%
осадки,
мм/ч
давл.,
гПа
погр.,
м
5 декабря, сб
сб501:00+23˚зсз11100100 53.0 101155
04:00+22˚ссз14100100 6.4 1011242
07:00+22˚ссз14100100 28.3 1014273
10:00+22˚зсз1399100 11.1 1016222
13:00+26˚з2384100 11.3 1012495
16:00+28˚з246991 0.0 1010889
19:00+22˚з159895 1.2 1012160
22:00+22˚юз2799100 3.1 1014357
6 декабря, вс
вс601:00+21˚зюз1799100 3.6 1012324
04:00+22˚зсз11100100 0.6 101187
07:00+23˚зюз1598100 0.8 1013362
10:00+28˚ююз2270100 0.0 1015781
13:00+28˚ююз1285100 1.8 1010820
16:00+27˚юз138698 2.4 1009596
19:00+23˚юз129751 7.0 101124
22:00+22˚ююв119997 3.4 101459
7 декабря, пн
пн701:00+22˚юз139994 3.6 1012153
04:00+22˚ю1110099 0.0 101166
07:00+22˚юв139899 0.0 1013187
10:00+29˚ю2363100 0.0 1014897
13:00+32˚ююз124991 0.0 10101621
16:00+29˚ю247547 0.6 1007750
19:00+24˚юв129662 1.1 101027
22:00+23˚в019579 0.0 101323
8 декабря, вт
вт801:00+22˚вюв009689 0.0 101223
04:00+22˚ю0097100 0.0 101123
07:00+23˚всв0094100 0.0 101442
10:00+29˚вюв1268100 0.0 1015699
13:00+26˚св2485100 0.4 1011298
16:00+30˚ююв116047 0.8 1007928
19:00+25˚в118428 0.8 101024
22:00+23˚ссз1187100 0.1 101224
9 декабря, ср
ср901:00+23˚ссв1193100 0.1 101124
04:00+22˚св1196100 0.0 101123
07:00+24˚св1488100 0.0 1013223
10:00+30˚с246285 0.0 1014937
13:00+29˚ссв248779 3.4 1011935
16:00+27˚ссв1693100 3.7 1009685
19:00+24˚св119798 4.1 101025
22:00+23˚с1298100 0.0 101133